Hebbronville, TX

1:43 AM CDT on October 23, 2017 (GMT -0500)
Hogg County

Weather History for KHBV - December, 2013

Change the Weather History Date:

Monday, December 2, 2013

  Actual Average (KALI) Record (KALI)
Temperature  
Mean Temperature 67 °F -  
Max Temperature 82 °F 70 °F 87 °F (2012)
Min Temperature 52 °F 50 °F 36 °F (2008)
Cooling Degree Days 2    
Growing Degree Days 17 (Base 50)    
Moisture  
Dew Point 54 °F    
Average Humidity 70    
Maximum Humidity 92    
Minimum Humidity 29    
Precipitation  
Precipitation 0.00 in - - ()
Sea Level Pressure  
Sea Level Pressure 29.86 in    
Wind  
Wind Speed 3 mph (SSW)    
Max Wind Speed 8 mph    
Max Gust Speed -    
Visibility 8 miles    
Events Fog    
Averages and records for this station are not official NWS values.
T = Trace of Precipitation, MM = Missing Value Source: NWS Daily Summary

Daily Weather History Graph

Daily Weather History Graph

Search for Another Location

Airport or City:

Trip Planner

Search our weather history database for the weather conditions in past years. The results will help you decide how hot, cold, wet, or windy it might be!

Date:

Astronomy

Dec. 02, 2013 Rise Set
Actual Time 7:08 AM CST 5:40 PM CST
Civil Twilight 6:43 AM CST 6:05 PM CST
Nautical Twilight 6:14 AM CST 6:34 PM CST
Astronomical Twilight 5:46 AM CST 7:02 PM CST
Moon 6:38 AM CST (12/2) 5:42 PM CST (12/2)
Length of Visible Light 11h 22m
Length of Day
10h 31m
Waning Crescent, 0% of the Moon is Illuminated
Dec 2
Waning Crescent
Dec 2
New
Dec 9
First Quarter
Dec 17
Full
Dec 25
Last Quarter

Hourly Weather History & Observations

Time (CST) Temp. Dew Point Humidity Pressure Visibility Wind Dir Wind Speed Gust Speed Precip Events Conditions
12:15 AM 59.2 °F 55.8 °F 88% 30.01 in 10.0 mi SSW 3.5 mph - N/A   Clear
12:35 AM 59.4 °F 55.9 °F 88% 29.99 in 10.0 mi SSW 5.8 mph - N/A   Clear
12:55 AM 59.2 °F 55.8 °F 88% 29.98 in 10.0 mi SSW 3.5 mph - N/A   Clear
1:15 AM 59.2 °F 55.8 °F 88% 29.96 in 10.0 mi South 5.8 mph - N/A   Clear
1:35 AM 59.5 °F 56.3 °F 89% 29.95 in 10.0 mi South 8.1 mph - N/A   Clear
1:55 AM 59.9 °F 56.5 °F 88% 29.94 in 10.0 mi South 6.9 mph - N/A   Clear
2:15 AM 59.9 °F 56.7 °F 89% 29.94 in 10.0 mi SSW 5.8 mph - N/A   Clear
2:35 AM 60.1 °F 56.7 °F 88% 29.94 in 10.0 mi SW 3.5 mph - N/A   Clear
2:55 AM 59.5 °F 56.3 °F 89% 29.94 in 5.0 mi Calm Calm - N/A   Clear
3:15 AM 58.8 °F 55.6 °F 89% 29.94 in 1.0 mi Calm Calm - N/A   Mist
3:35 AM 57.4 °F 54.1 °F 89% 29.93 in 0.5 mi Calm Calm - N/A Fog Fog
3:55 AM 56.5 °F 53.6 °F 90% 29.93 in 0.2 mi Calm Calm - N/A Fog Fog
4:15 AM 56.3 °F 53.6 °F 91% 29.92 in 1.5 mi Calm Calm - N/A   Mist
4:35 AM 55.8 °F 52.9 °F 90% 29.92 in 0.2 mi Calm Calm - N/A Fog Fog
4:55 AM 55.0 °F 52.2 °F 90% 29.91 in 0.2 mi Calm Calm - N/A Fog Fog
5:15 AM 54.5 °F 51.8 °F 91% 29.91 in 0.2 mi Calm Calm - N/A Fog Fog
5:35 AM 53.8 °F 51.1 °F 91% 29.91 in 0.2 mi WSW 3.5 mph - N/A Fog Fog
5:55 AM 53.4 °F 50.9 °F 91% 29.91 in 0.2 mi Calm Calm - N/A Fog Fog
6:15 AM 53.6 °F 51.1 °F 91% 29.91 in 0.2 mi NW 4.6 mph - N/A Fog Fog
6:35 AM 54.0 °F 51.3 °F 91% 29.91 in 1.5 mi Calm Calm - N/A   Overcast
6:55 AM 54.5 °F 52.0 °F 91% 29.91 in 0.8 mi Calm Calm - N/A   Mostly Cloudy
7:15 AM 54.7 °F 52.2 °F 91% 29.91 in 0.2 mi Calm Calm - N/A Fog Fog
7:35 AM 52.7 °F 50.4 °F 92% 29.91 in 0.2 mi Calm Calm - N/A Fog Fog
7:55 AM 53.4 °F 50.9 °F 91% 29.91 in 7.0 mi Calm Calm - N/A   Clear
8:15 AM 55.9 °F 53.4 °F 91% 29.92 in 7.0 mi Calm Calm - N/A   Clear
8:35 AM 57.7 °F 55.2 °F 91% 29.93 in 10.0 mi Calm Calm - N/A   Clear
8:55 AM 60.3 °F 57.6 °F 91% 29.92 in 10.0 mi Calm Calm - N/A   Clear
9:15 AM 62.2 °F 59.5 °F 91% 29.92 in 10.0 mi SSW 3.5 mph - N/A   Clear
9:35 AM 64.2 °F 61.3 °F 90% 29.92 in 10.0 mi SSW 4.6 mph - N/A   Clear
9:55 AM 65.5 °F 62.4 °F 90% 29.93 in 10.0 mi SSW 4.6 mph - N/A   Clear
10:15 AM 69.6 °F 60.4 °F 73% 29.93 in 10.0 mi SW 6.9 mph - N/A   Clear
10:35 AM 71.6 °F 58.8 °F 64% 29.92 in 10.0 mi SSW 4.6 mph - N/A   Clear
10:55 AM 73.2 °F 58.5 °F 60% 29.91 in 10.0 mi SW 5.8 mph - N/A   Clear
11:15 AM 74.5 °F 57.0 °F 54% 29.90 in 10.0 mi SSW 5.8 mph - N/A   Clear
11:35 AM 75.4 °F 56.3 °F 51% 29.90 in 10.0 mi Calm Calm - N/A   Clear
11:55 AM 76.1 °F 55.4 °F 49% 29.88 in 7.0 mi SSW 4.6 mph - N/A   Clear
12:15 PM 76.8 °F 55.4 °F 47% 29.87 in 10.0 mi Calm Calm - N/A   Clear
12:35 PM 77.7 °F 54.7 °F 45% 29.86 in 10.0 mi SW 4.6 mph - N/A   Clear
12:55 PM 78.3 °F 54.1 °F 43% 29.84 in 10.0 mi SW 5.8 mph - N/A   Clear
1:15 PM 78.8 °F 53.4 °F 41% 29.83 in 10.0 mi SW 5.8 mph - N/A   Clear
1:35 PM 79.9 °F 52.5 °F 39% 29.82 in 10.0 mi SSW 4.6 mph - N/A   Clear
1:55 PM 80.6 °F 51.6 °F 36% 29.80 in 10.0 mi SSE 4.6 mph - N/A   Clear
2:15 PM 81.1 °F 50.4 °F 34% 29.79 in 10.0 mi SW 4.6 mph - N/A   Clear
2:35 PM 81.5 °F 49.6 °F 33% 29.78 in 10.0 mi Calm Calm - N/A   Clear
2:55 PM 81.7 °F 49.3 °F 32% 29.78 in 10.0 mi SSW 3.5 mph - N/A   Clear
3:15 PM 82.2 °F 48.4 °F 31% 29.78 in 10.0 mi SW 5.8 mph - N/A   Clear
3:35 PM 82.4 °F 48.0 °F 30% 29.77 in 10.0 mi WSW 5.8 mph - N/A   Clear
3:55 PM 82.4 °F 47.1 °F 29% 29.77 in 10.0 mi SSW 3.5 mph - N/A   Clear
4:15 PM 82.0 °F 47.3 °F 30% 29.76 in 10.0 mi SSW 6.9 mph - N/A   Clear
4:35 PM 79.3 °F 49.6 °F 35% 29.76 in 10.0 mi SSW 3.5 mph - N/A   Clear
4:55 PM 77.4 °F 50.9 °F 39% 29.77 in 10.0 mi SSW 5.8 mph - N/A   Clear
5:15 PM 75.6 °F 52.2 °F 44% 29.76 in 10.0 mi SW 4.6 mph - N/A   Clear
5:35 PM 73.9 °F 53.2 °F 48% 29.77 in 10.0 mi SW 4.6 mph - N/A   Clear
5:55 PM 72.9 °F 53.6 °F 51% 29.77 in 10.0 mi SW 3.5 mph - N/A   Clear
6:15 PM 71.2 °F 54.3 °F 55% 29.77 in 10.0 mi SW 3.5 mph - N/A   Clear
6:35 PM 69.8 °F 54.5 °F 58% 29.77 in 10.0 mi SSW 4.6 mph - N/A   Clear
6:55 PM 68.2 °F 54.9 °F 62% 29.77 in 10.0 mi South 5.8 mph - N/A   Clear
7:15 PM 66.7 °F 55.2 °F 66% 29.77 in 10.0 mi SSW 6.9 mph - N/A   Clear
7:35 PM 67.5 °F 56.1 °F 67% 29.78 in 10.0 mi SSW 6.9 mph - N/A   Clear
7:55 PM 67.5 °F 57.0 °F 69% 29.78 in 10.0 mi SSW 6.9 mph - N/A   Clear
8:15 PM 67.5 °F 57.2 °F 70% 29.78 in 10.0 mi SSW 3.5 mph - N/A   Clear
8:35 PM 67.1 °F 57.0 °F 70% 29.78 in 10.0 mi South 5.8 mph - N/A   Clear
8:55 PM 65.5 °F 57.2 °F 75% 29.79 in 10.0 mi Calm Calm - N/A   Clear
9:15 PM 64.6 °F 57.0 °F 76% 29.78 in 10.0 mi SSW 5.8 mph - N/A   Clear
9:35 PM 63.7 °F 56.8 °F 78% 29.78 in 10.0 mi SSW 4.6 mph - N/A   Clear
9:55 PM 63.1 °F 56.7 °F 79% 29.78 in 10.0 mi South 3.5 mph - N/A   Clear
10:15 PM 62.1 °F 56.1 °F 81% 29.79 in 10.0 mi Calm Calm - N/A   Clear
10:35 PM 61.0 °F 55.8 °F 83% 29.78 in 10.0 mi South 5.8 mph - N/A   Clear
10:55 PM 61.0 °F 56.1 °F 84% 29.78 in 10.0 mi South 5.8 mph - N/A   Clear
11:15 PM 61.3 °F 56.3 °F 83% 29.77 in 10.0 mi South 3.5 mph - N/A   Clear
11:35 PM 61.2 °F 55.8 °F 82% 29.77 in 10.0 mi Calm Calm - N/A   Clear
11:55 PM 60.1 °F 55.2 °F 84% 29.76 in 7.0 mi Calm Calm - N/A   Clear